Flag for United Kingdom Weather past 2 weeks in Blackpool, England, United Kingdom

Now
43 °F

Sprinkles. Partly cloudy.


Feels Like: 33 °F
Forecast: 44 / 48 °F
Wind: 23 mph from Northwest

Location: Liverpool Airport

Current Time: Mar 30, 2015 at 6:06:06 AM

Latest Report: Mar 30, 2015 at 5:20 AM


Visibility: N/A

Pressure: 29.65 "Hg

Humidity: 76%

Dew point: 36 °F

Location of BlackpoolLocation

Historic Weather in Blackpool — Graph

°F

Blackpool temperature yesterday

Maximum temperature yesterday: 50 °F (at 12:20 AM)
Minimum temperature yesterday: 41 °F (at 11:50 PM)
Average temperature yesterday: 47 °F

Past Weeks' High & Low Weather Summary

 TemperatureHumidityPressure
High57 °F (Mar 28, 12:20 PM)100% (Mar 17, 12:50 AM)30.60 "Hg (Mar 17, 12:50 AM)
Low30 °F (Mar 19, 6:20 AM)50% (Mar 21, 3:50 PM)29.21 "Hg (Mar 29, 10:50 AM)
Average44 °F83%30.09 "Hg
* Reported Mar 15 3:20 AM — Mar 30 4:50 AM, Blackpool, Weather by CustomWeather, © 2015

Note: Actual official high and low records may vary slightly from our data, if they occured in-between our weather recording intervals... More about our weather records

Advertising

Blackpool weather history for previous 24 hours

 ConditionsComfort  
Time TempWeatherWind HumidityBarometerVisibility
4:50 AM
Mon, Mar 30
43 °FRain showers. Partly cloudy.26 mph81%29.62 "HgN/A
4:20 AM45 °FPassing clouds.28 mph71%29.62 "HgN/A
3:50 AM43 °FRain showers. Passing clouds.25 mph81%29.59 "HgN/A
3:20 AM43 °FRain showers. Passing clouds.25 mph87%29.59 "HgN/A
2:50 AM43 °FPassing clouds.23 mph81%29.56 "HgN/A
2:20 AM41 °FPassing clouds.22 mph87%29.56 "HgN/A
1:50 AM43 °FPassing clouds.24 mph87%29.56 "HgN/A
1:20 AM43 °FPassing clouds.22 mph81%29.56 "HgN/A
12:50 AM43 °FPassing clouds.21 mph87%29.53 "HgN/A
12:20 AM43 °FPassing clouds.15 mph87%29.53 "HgN/A
11:50 PM
Sun, Mar 29
41 °FSprinkles. Passing clouds.16 mph87%29.53 "HgN/A
11:20 PM45 °FPassing clouds.24 mph81%29.50 "HgN/A
10:50 PM45 °FPassing clouds.23 mph81%29.50 "HgN/A
10:20 PM45 °FPassing clouds.23 mph81%29.47 "HgN/A
9:50 PM46 °FPassing clouds.22 mph76%29.47 "HgN/A
9:20 PM46 °FPassing clouds.21 mph82%29.47 "HgN/A
8:50 PM45 °FPassing clouds.21 mph81%29.45 "HgN/A
8:20 PM46 °FPassing clouds.22 mph76%29.45 "HgN/A
7:50 PM46 °FPassing clouds.23 mph76%29.45 "HgN/A
7:20 PM46 °FPassing clouds.25 mph76%29.42 "HgN/A
6:50 PM46 °FPassing clouds.31 mph76%29.42 "HgN/A
6:20 PM48 °FPassing clouds.30 mph76%29.39 "HgN/A
5:50 PM48 °FPassing clouds.30 mph71%29.39 "HgN/A
5:20 PM48 °FScattered clouds.30 mph76%29.36 "HgN/A
4:50 PM48 °FScattered clouds.26 mph82%29.36 "HgN/A
4:20 PM48 °FPartly sunny.25 mph82%29.36 "HgN/A
3:50 PM48 °FPartly sunny.29 mph82%29.36 "HgN/A
3:20 PM48 °FScattered showers. Partly sunny.31 mph82%29.36 "HgN/A
2:50 PM48 °FScattered showers. Broken clouds.30 mph82%29.33 "HgN/A
2:20 PM46 °FScattered showers. Broken clouds.29 mph87%29.33 "Hg6 mi
1:20 PM46 °FBroken clouds.17 mph93%29.27 "HgN/A
12:50 PM46 °FPartly sunny.9 mph93%29.27 "HgN/A
12:20 PM46 °FPartly sunny.10 mph93%29.24 "HgN/A
11:50 AM45 °FBroken clouds.9 mph100%29.21 "HgN/A
11:20 AM45 °FRain. Broken clouds.10 mph93%29.21 "Hg2 mi
10:50 AM45 °FLight rain. Broken clouds.5 mph100%29.21 "Hg2 mi
10:20 AM45 °FLight rain. Broken clouds.6 mph93%29.24 "Hg2 mi
9:50 AM45 °FLight rain. Broken clouds.6 mph93%29.27 "Hg3 mi
9:20 AM45 °FLight rain. Broken clouds.2 mph87%29.33 "HgN/A
8:50 AM45 °FLight rain. Broken clouds.10 mph87%29.36 "HgN/A
8:20 AM46 °FLight rain. More clouds than sun.12 mph93%29.39 "Hg5 mi
7:50 AM45 °FPartly cloudy.7 mph93%29.42 "HgN/A
7:20 AM46 °FPassing clouds.13 mph82%29.45 "HgN/A
6:50 AM46 °FPassing clouds.10 mph82%29.45 "HgN/A
6:20 AM48 °FClear.17 mph76%29.45 "Hg10 mi
Weather by CustomWeather, © 2015

See weather overviewHow to use our weather pages